Terminal Aerodrome Forecast
Issued by NWS Sterling, VA

Current Version | Previous Version | Text Only | Print | Product List | Glossary Off
Versions: 1 2 3 4 5 6 7 8 9 10 11 12 13 14 15 16 17 18 19 20 21

241
FTUS41 KLWX 141504 AAB
TAFDCA
TAF AMD
KDCA 141504Z 1415/1512 11004KT P6SM -RA OVC025
     FM141800 13004KT 3SM -RA OVC008
     FM150000 VRB03KT P6SM OVC008
     FM150600 VRB03KT P6SM OVC020=

USA.gov is the U.S. government's official web portal to all federal, state and local government web resources and services.